Flag Weather past 2 weeks in Tucson, Arizona, U.S.A.

Now
69 °F

Clear.


Feels Like: 69 °F
Forecast: 65 / 90 °F
Wind: 8 mph from Southwest

Location: Davis-Monthan Air Force Base

Current Time: Oct 31, 2014 at 6:08:57 AM

Latest Report: Oct 31, 2014 at 4:58 AM


Visibility: 10 mi

Pressure: 29.86 "Hg

Humidity: 34%

Dew point: 39 °F

Location of TucsonLocation

Historic Weather in Tucson — Graph

°F

Tucson temperature yesterday

Maximum temperature yesterday: 90 °F (at 3:58 PM)
Minimum temperature yesterday: 57 °F (at 3:58 AM)
Average temperature yesterday: 74 °F

Past Weeks' High & Low Weather Summary

 TemperatureHumidityPressure
High94 °F (Oct 25, 2:58 PM)74% (Oct 28, 5:58 AM)30.09 "Hg (Oct 28, 5:58 AM)
Low55 °F (Oct 29, 6:58 AM)12% (Oct 30, 1:58 PM)29.70 "Hg (Oct 18, 3:58 PM)
Average73 °F42%29.88 "Hg
* Reported Oct 16 4:58 AM — Oct 31 4:58 AM, Tucson, Weather by CustomWeather, © 2014

Note: Actual official high and low records may vary slightly from our data, if they occured in-between our weather recording intervals... More about our weather records

Advertising

Tucson weather history for previous 24 hours

 ConditionsComfort  
Time TempWeatherWind HumidityBarometerVisibility
4:58 AM
Oct 31
69 °FClear.8 mph34%29.86 "Hg10 mi
3:58 AM71 °FClear.10 mph32%29.84 "Hg10 mi
2:58 AM66 °FClear.8 mph38%29.87 "Hg10 mi
1:58 AM66 °FClear.9 mph37%29.89 "Hg10 mi
12:58 AM67 °FClear.5 mph36%29.90 "Hg10 mi
11:58 PM
Oct 30
66 °FClear.9 mph42%29.90 "Hg10 mi
10:58 PM69 °FClear.8 mph36%29.91 "Hg10 mi
9:58 PM73 °FClear.6 mph29%29.92 "Hg10 mi
8:58 PM77 °FClear.8 mph22%29.90 "Hg10 mi
7:58 PM76 °FClear.6 mph22%29.90 "Hg10 mi
6:58 PM78 °FClear.5 mph23%29.89 "Hg10 mi
5:58 PM84 °FClear.6 mph16%29.88 "Hg10 mi
4:58 PM87 °FSunny.7 mph14%29.86 "Hg10 mi
3:58 PM90 °FSunny.6 mph12%29.86 "Hg10 mi
2:58 PM88 °FSunny.6 mph14%29.87 "Hg10 mi
1:58 PM89 °FSunny.1 mph12%29.89 "Hg10 mi
12:58 PM89 °FSunny.6 mph13%29.91 "Hg10 mi
11:58 AM87 °FSunny.5 mph18%29.94 "Hg10 mi
10:58 AM83 °FSunny.5 mph21%29.96 "Hg10 mi
9:58 AM77 °FSunny.8 mph30%30.00 "Hg10 mi
8:58 AM73 °FSunny.13 mph32%30.00 "Hg10 mi
7:58 AM65 °FSunny.6 mph40%30.00 "Hg10 mi
6:58 AM62 °FSunny.10 mph44%29.99 "Hg10 mi
Weather by CustomWeather, © 2014

See weather overviewHow to use our weather pages